THY9NK LTAU-LTFM

Flight info

Callsign THY9NK
Flight time 1h 0m
Altitude 36000
Route KISLA UL605 YAVRU UL615 ERSEN
Aircraft A321/M-SDE3FGHIRWY/LB1

Departure

Time 2026-05-05 20:34
Airport Kayseri Erkilet International Airport (LTAU)

Arrival

Time 2026-05-05 21:34
Airport İstanbul Airport (LTFM)
Time Latitude Longitude Altitude Speed Heading
2026-05-05 20:10 38.76681 35.48791 3468 ft 0 kts 166°
2026-05-05 20:22 38.76689 35.48789 3468 ft 4 kts 168°
2026-05-05 20:22 38.76715 35.48785 3466 ft 4 kts 184°
2026-05-05 20:23 38.76740 35.48792 3466 ft 4 kts 215°
2026-05-05 20:23 38.76755 35.48814 3465 ft 2 kts 257°
2026-05-05 20:23 38.76755 35.48816 3465 ft 0 kts 257°
2026-05-05 20:26 38.76753 35.48806 3465 ft 2 kts 257°
2026-05-05 20:27 38.76749 35.48782 3465 ft 4 kts 257°
2026-05-05 20:27 38.76742 35.48743 3468 ft 5 kts 257°
2026-05-05 20:27 38.76734 35.48689 3468 ft 7 kts 259°
2026-05-05 20:27 38.76762 35.48644 3468 ft 8 kts 335°
2026-05-05 20:28 38.76819 35.48624 3468 ft 10 kts 345°
2026-05-05 20:28 38.76893 35.48600 3467 ft 12 kts 347°
2026-05-05 20:28 38.76972 35.48579 3466 ft 9 kts 353°
2026-05-05 20:28 38.77006 35.48607 3464 ft 7 kts 59°
2026-05-05 20:29 38.77018 35.48680 3465 ft 10 kts 78°
2026-05-05 20:29 38.77035 35.48767 3465 ft 10 kts 75°
2026-05-05 20:29 38.77052 35.48854 3466 ft 10 kts 76°
2026-05-05 20:29 38.77071 35.48947 3468 ft 12 kts 76°
2026-05-05 20:30 38.77093 35.49063 3469 ft 15 kts 76°
2026-05-05 20:30 38.77120 35.49201 3469 ft 17 kts 75°
2026-05-05 20:30 38.77154 35.49362 3469 ft 21 kts 76°
2026-05-05 20:30 38.77189 35.49560 3467 ft 24 kts 77°
2026-05-05 20:31 38.77227 35.49784 3465 ft 28 kts 78°
2026-05-05 20:31 38.77276 35.50042 3462 ft 31 kts 76°
2026-05-05 20:31 38.77329 35.50318 3463 ft 32 kts 77°
2026-05-05 20:31 38.77380 35.50584 3467 ft 30 kts 76°
2026-05-05 20:32 38.77431 35.50845 3470 ft 29 kts 77°
2026-05-05 20:32 38.77464 35.51041 3470 ft 12 kts 77°
2026-05-05 20:32 38.77474 35.51148 3469 ft 12 kts 111°
2026-05-05 20:32 38.77395 35.51191 3468 ft 14 kts 175°
2026-05-05 20:33 38.77345 35.51111 3469 ft 12 kts 255°
2026-05-05 20:33 38.77307 35.50922 3472 ft 47 kts 256°
2026-05-05 20:33 38.77173 35.50214 3464 ft 114 kts 257°
2026-05-05 20:33 38.76944 35.48992 3474 ft 166 kts 257°
2026-05-05 20:34 38.76693 35.47556 4155 ft 163 kts 259°
2026-05-05 20:34 38.76469 35.46115 4844 ft 171 kts 260°
2026-05-05 20:34 38.76229 35.44530 5099 ft 192 kts 260°
2026-05-05 20:34 38.75962 35.42747 5301 ft 214 kts 262°
2026-05-05 20:35 38.76114 35.40789 5390 ft 237 kts 296°
2026-05-05 20:35 38.77279 35.39174 5608 ft 261 kts 325°
2026-05-05 20:35 38.78766 35.37816 6315 ft 264 kts 314°
2026-05-05 20:35 38.79877 35.35936 7061 ft 266 kts 301°
2026-05-05 20:36 38.80645 35.33770 7786 ft 269 kts 292°
2026-05-05 20:36 38.81348 35.31532 8518 ft 272 kts 292°
2026-05-05 20:36 38.82057 35.29258 9186 ft 276 kts 292°
2026-05-05 20:36 38.82769 35.26957 9948 ft 278 kts 292°
2026-05-05 20:37 38.83492 35.24606 10362 ft 293 kts 292°
2026-05-05 20:37 38.84270 35.22085 10515 ft 316 kts 292°
2026-05-05 20:37 38.85098 35.19390 10783 ft 332 kts 292°
2026-05-05 20:37 38.85948 35.16606 11358 ft 337 kts 292°
2026-05-05 20:38 38.86804 35.13790 12000 ft 341 kts 292°
2026-05-05 20:38 38.87672 35.10938 12654 ft 344 kts 292°
2026-05-05 20:38 38.88545 35.08064 13288 ft 347 kts 292°
2026-05-05 20:38 38.89427 35.05164 13921 ft 351 kts 292°
2026-05-05 20:39 38.90322 35.02232 14507 ft 354 kts 292°
2026-05-05 20:39 38.91221 34.99280 15104 ft 357 kts 292°
2026-05-05 20:39 38.92123 34.96306 15705 ft 359 kts 292°
2026-05-05 20:39 38.93031 34.93304 16312 ft 362 kts 292°
2026-05-05 20:40 38.93945 34.90280 16919 ft 364 kts 292°
2026-05-05 20:40 38.94867 34.87231 17529 ft 367 kts 292°
2026-05-05 20:40 38.95792 34.84169 18131 ft 370 kts 291°
2026-05-05 20:40 38.96728 34.81072 18683 ft 372 kts 292°
2026-05-05 20:41 38.97666 34.77964 19205 ft 375 kts 292°
2026-05-05 20:41 38.98609 34.74832 19754 ft 377 kts 292°
2026-05-05 20:41 38.99556 34.71682 20302 ft 379 kts 292°
2026-05-05 20:41 39.00507 34.68516 20851 ft 381 kts 292°
2026-05-05 20:42 39.01463 34.65329 21394 ft 383 kts 292°
2026-05-05 20:42 39.02421 34.62130 21921 ft 385 kts 293°
2026-05-05 20:42 39.03385 34.58912 22439 ft 386 kts 293°
2026-05-05 20:42 39.04351 34.55681 22942 ft 388 kts 293°
2026-05-05 20:43 39.05306 34.52483 23430 ft 390 kts 293°
2026-05-05 20:43 39.06295 34.49175 23860 ft 392 kts 294°
2026-05-05 20:43 39.07272 34.45898 24260 ft 393 kts 294°
2026-05-05 20:43 39.08254 34.42600 24665 ft 394 kts 294°
2026-05-05 20:44 39.09236 34.39294 25068 ft 396 kts 294°
2026-05-05 20:44 39.10219 34.35979 25463 ft 397 kts 294°
2026-05-05 20:44 39.11295 34.32708 25838 ft 396 kts 300°
2026-05-05 20:44 39.12655 34.29627 26226 ft 397 kts 304°
2026-05-05 20:45 39.16067 34.24053 26979 ft 398 kts 311°
2026-05-05 20:45 39.17830 34.21347 27342 ft 399 kts 311°
2026-05-05 20:45 39.19616 34.18595 27698 ft 401 kts 311°
2026-05-05 20:46 39.21408 34.15824 28046 ft 403 kts 311°
2026-05-05 20:46 39.23204 34.13038 28387 ft 405 kts 311°
2026-05-05 20:46 39.25009 34.10236 28714 ft 407 kts 311°
2026-05-05 20:46 39.26818 34.07431 29043 ft 409 kts 311°
2026-05-05 20:47 39.28643 34.04606 29366 ft 411 kts 311°
2026-05-05 20:47 39.30476 34.01765 29693 ft 413 kts 311°
2026-05-05 20:47 39.32317 33.98912 30042 ft 415 kts 311°
2026-05-05 20:47 39.34170 33.96034 30329 ft 416 kts 311°
2026-05-05 20:48 39.36019 33.93166 30685 ft 416 kts 311°
2026-05-05 20:48 39.37877 33.90291 31030 ft 415 kts 311°
2026-05-05 20:48 39.39728 33.87428 31374 ft 415 kts 311°
2026-05-05 20:48 39.41579 33.84560 31705 ft 415 kts 311°
2026-05-05 20:49 39.43425 33.81694 32039 ft 415 kts 311°
2026-05-05 20:49 39.45274 33.78822 32372 ft 415 kts 311°
2026-05-05 20:49 39.47116 33.75946 32707 ft 415 kts 311°
2026-05-05 20:49 39.48936 33.73052 33033 ft 415 kts 310°
2026-05-05 20:50 39.50744 33.70138 33351 ft 414 kts 310°
2026-05-05 20:50 39.52541 33.67221 33691 ft 414 kts 310°
2026-05-05 20:50 39.54334 33.64304 33999 ft 414 kts 310°
2026-05-05 20:50 39.56121 33.61403 34240 ft 414 kts 310°
2026-05-05 20:51 39.57904 33.58518 34464 ft 415 kts 310°
2026-05-05 20:51 39.59748 33.55570 34692 ft 415 kts 310°
2026-05-05 20:51 39.61585 33.52689 34897 ft 416 kts 311°
2026-05-05 20:51 39.63448 33.49798 35107 ft 417 kts 311°
2026-05-05 20:52 39.65288 33.46950 35311 ft 418 kts 311°
2026-05-05 20:52 39.67153 33.44054 35516 ft 419 kts 310°
2026-05-05 20:52 39.69023 33.41137 35731 ft 420 kts 310°
2026-05-05 20:52 39.70888 33.38215 35939 ft 421 kts 310°
2026-05-05 20:53 39.74622 33.32344 36034 ft 422 kts 310°
2026-05-05 20:53 39.78356 33.26453 36031 ft 422 kts 310°
2026-05-05 20:54 39.82098 33.20556 36033 ft 422 kts 310°
2026-05-05 20:54 39.85829 33.14664 36030 ft 423 kts 310°
2026-05-05 20:55 39.89565 33.08757 36038 ft 423 kts 310°
2026-05-05 20:55 39.93309 33.02829 36041 ft 423 kts 310°
2026-05-05 20:56 39.97044 32.96892 36041 ft 424 kts 310°
2026-05-05 20:56 40.00777 32.90935 36038 ft 424 kts 310°
2026-05-05 20:57 40.04504 32.84979 36039 ft 424 kts 310°
2026-05-05 20:57 40.08194 32.78968 36041 ft 425 kts 308°
2026-05-05 20:58 40.11604 32.72653 36048 ft 426 kts 305°
2026-05-05 20:58 40.14893 32.66210 36050 ft 426 kts 305°
2026-05-05 20:59 40.18224 32.59807 36055 ft 426 kts 306°
2026-05-05 20:59 40.22683 32.51418 36062 ft 426 kts 306°
2026-05-05 21:00 40.29432 32.38642 36066 ft 427 kts 306°
2026-05-05 21:00 40.36149 32.25823 36073 ft 427 kts 306°
2026-05-05 21:01 40.42876 32.12964 36082 ft 427 kts 306°
2026-05-05 21:01 40.49532 32.00144 36086 ft 428 kts 306°
2026-05-05 21:02 40.56263 31.87094 36094 ft 429 kts 306°
2026-05-05 21:02 40.60249 31.75010 36126 ft 433 kts 290°
2026-05-05 21:02 40.62908 31.64310 36065 ft 432 kts 291°
2026-05-05 21:03 40.64788 31.56789 36066 ft 433 kts 291°
2026-05-05 21:03 40.66647 31.49233 35840 ft 434 kts 290°
2026-05-05 21:04 40.67568 31.45456 35449 ft 433 kts 290°
2026-05-05 21:04 40.68489 31.41676 34814 ft 435 kts 291°
2026-05-05 21:04 40.69416 31.37863 34179 ft 437 kts 291°
2026-05-05 21:04 40.70340 31.34057 33648 ft 435 kts 291°
2026-05-05 21:05 40.71258 31.30272 33151 ft 432 kts 291°
2026-05-05 21:05 40.72171 31.26522 32651 ft 429 kts 291°
2026-05-05 21:05 40.73078 31.22798 32160 ft 426 kts 291°
2026-05-05 21:05 40.73980 31.19089 31679 ft 423 kts 291°
2026-05-05 21:06 40.74872 31.15414 31180 ft 420 kts 291°
2026-05-05 21:06 40.75755 31.11765 30686 ft 417 kts 291°
2026-05-05 21:06 40.76632 31.08133 30210 ft 414 kts 291°
2026-05-05 21:06 40.77505 31.04520 29678 ft 411 kts 291°
2026-05-05 21:07 40.78365 31.00951 29212 ft 406 kts 291°
2026-05-05 21:07 40.79214 30.97414 28749 ft 401 kts 291°
2026-05-05 21:07 40.80050 30.93926 28287 ft 397 kts 291°
2026-05-05 21:07 40.80878 30.90466 27828 ft 394 kts 291°
2026-05-05 21:08 40.81696 30.87041 27397 ft 390 kts 290°
2026-05-05 21:08 40.82506 30.83644 26974 ft 386 kts 290°
2026-05-05 21:08 40.83309 30.80271 26548 ft 383 kts 290°
2026-05-05 21:08 40.84105 30.76920 26142 ft 380 kts 290°
2026-05-05 21:09 40.84626 30.74725 25866 ft 379 kts 290°
2026-05-05 21:09 40.85410 30.71410 25467 ft 377 kts 290°
2026-05-05 21:09 40.86169 30.68108 25064 ft 375 kts 287°
2026-05-05 21:09 40.86581 30.64705 24663 ft 376 kts 276°
2026-05-05 21:10 40.86654 30.61253 24263 ft 375 kts 274°
2026-05-05 21:10 40.86711 30.57812 23850 ft 374 kts 274°
2026-05-05 21:10 40.86770 30.54399 23401 ft 372 kts 274°
2026-05-05 21:10 40.86830 30.50993 22969 ft 368 kts 274°
2026-05-05 21:11 40.86889 30.47633 22540 ft 365 kts 274°
2026-05-05 21:11 40.86946 30.44298 22139 ft 361 kts 274°
2026-05-05 21:11 40.87002 30.40996 21711 ft 358 kts 274°
2026-05-05 21:11 40.87056 30.37717 21307 ft 355 kts 274°
2026-05-05 21:12 40.87108 30.34468 20877 ft 353 kts 274°
2026-05-05 21:12 40.87161 30.31231 20456 ft 351 kts 274°
2026-05-05 21:12 40.87212 30.28018 20026 ft 349 kts 274°
2026-05-05 21:12 40.87262 30.24826 19603 ft 347 kts 274°
2026-05-05 21:13 40.87310 30.21638 19182 ft 345 kts 274°
2026-05-05 21:13 40.87358 30.18475 18766 ft 344 kts 274°
2026-05-05 21:13 40.87404 30.15331 18334 ft 342 kts 274°
2026-05-05 21:13 40.87449 30.12203 17878 ft 340 kts 274°
2026-05-05 21:14 40.87489 30.09095 17458 ft 337 kts 273°
2026-05-05 21:14 40.87529 30.06016 17046 ft 334 kts 273°
2026-05-05 21:14 40.87569 30.02955 16631 ft 332 kts 273°
2026-05-05 21:14 40.87610 29.99956 16226 ft 330 kts 273°
2026-05-05 21:15 40.87650 29.96939 15816 ft 328 kts 273°
2026-05-05 21:15 40.87688 29.93932 15405 ft 326 kts 273°
2026-05-05 21:15 40.87723 29.90942 14999 ft 325 kts 273°
2026-05-05 21:15 40.87759 29.87922 14585 ft 324 kts 273°
2026-05-05 21:16 40.87790 29.85382 14239 ft 322 kts 273°
2026-05-05 21:16 40.87826 29.82423 13825 ft 322 kts 273°
2026-05-05 21:16 40.87864 29.79478 13386 ft 320 kts 273°
2026-05-05 21:16 40.87898 29.76541 12984 ft 318 kts 273°
2026-05-05 21:17 40.87929 29.73633 12526 ft 317 kts 273°
2026-05-05 21:17 40.87960 29.70720 12110 ft 316 kts 273°
2026-05-05 21:17 40.87985 29.67827 11712 ft 314 kts 273°
2026-05-05 21:17 40.88011 29.64948 11323 ft 312 kts 273°
2026-05-05 21:18 40.88038 29.62083 10928 ft 311 kts 273°
2026-05-05 21:18 40.88065 29.59235 10540 ft 309 kts 274°
2026-05-05 21:18 40.88090 29.56408 10191 ft 306 kts 273°
2026-05-05 21:18 40.88111 29.53651 10049 ft 295 kts 274°
2026-05-05 21:19 40.88139 29.50962 9812 ft 289 kts 275°
2026-05-05 21:19 40.88246 29.48327 9651 ft 287 kts 277°
2026-05-05 21:19 40.88411 29.45713 9394 ft 285 kts 278°
2026-05-05 21:19 40.88592 29.43111 9122 ft 283 kts 278°
2026-05-05 21:20 40.88772 29.40529 8853 ft 282 kts 278°
2026-05-05 21:20 40.88944 29.37956 8585 ft 281 kts 278°
2026-05-05 21:20 40.89110 29.35427 8317 ft 279 kts 278°
2026-05-05 21:20 40.89272 29.32841 8050 ft 278 kts 277°
2026-05-05 21:21 40.89425 29.30339 7786 ft 277 kts 277°
2026-05-05 21:21 40.89578 29.27811 7523 ft 275 kts 277°
2026-05-05 21:21 40.89728 29.25298 7256 ft 274 kts 277°
2026-05-05 21:21 40.89876 29.22793 6997 ft 273 kts 277°
2026-05-05 21:22 40.90023 29.20297 6737 ft 272 kts 277°
2026-05-05 21:22 40.90170 29.17815 6476 ft 270 kts 277°
2026-05-05 21:22 40.90314 29.15346 6208 ft 269 kts 277°
2026-05-05 21:22 40.90459 29.12875 5951 ft 269 kts 277°
2026-05-05 21:23 40.90604 29.10414 5687 ft 268 kts 277°
2026-05-05 21:23 40.90745 29.07969 5429 ft 266 kts 277°
2026-05-05 21:23 40.90883 29.05559 5273 ft 257 kts 277°
2026-05-05 21:23 40.91015 29.03246 5146 ft 248 kts 277°
2026-05-05 21:24 40.91141 29.01020 4992 ft 239 kts 277°
2026-05-05 21:24 40.91295 28.98858 4816 ft 233 kts 279°
2026-05-05 21:24 40.91482 28.96727 4699 ft 233 kts 280°
2026-05-05 21:24 40.91681 28.94604 4514 ft 232 kts 280°
2026-05-05 21:25 40.91879 28.92486 4317 ft 232 kts 280°
2026-05-05 21:25 40.92072 28.90376 4123 ft 231 kts 279°
2026-05-05 21:25 40.92262 28.88273 4012 ft 231 kts 279°
2026-05-05 21:25 40.92449 28.86162 4009 ft 231 kts 279°
2026-05-05 21:26 40.92634 28.84053 4008 ft 231 kts 279°
2026-05-05 21:26 40.92835 28.81944 4008 ft 231 kts 285°
2026-05-05 21:26 40.93420 28.80008 4008 ft 226 kts 306°
2026-05-05 21:26 40.94465 28.78498 4011 ft 222 kts 326°
2026-05-05 21:27 40.95777 28.77432 4010 ft 221 kts 331°
2026-05-05 21:27 40.97149 28.76499 4008 ft 222 kts 343°
2026-05-05 21:27 40.98660 28.76168 4011 ft 221 kts 358°
2026-05-05 21:27 41.00181 28.76142 4012 ft 222 kts
2026-05-05 21:28 41.01713 28.76129 4023 ft 215 kts 359°
2026-05-05 21:28 41.03188 28.76105 4009 ft 205 kts 359°
2026-05-05 21:28 41.04593 28.76079 4011 ft 204 kts 359°
2026-05-05 21:28 41.06008 28.76052 4020 ft 199 kts 359°
2026-05-05 21:29 41.07364 28.76026 3977 ft 192 kts 359°
2026-05-05 21:29 41.08655 28.76001 3710 ft 181 kts 359°
2026-05-05 21:29 41.09904 28.75973 3465 ft 177 kts 359°
2026-05-05 21:29 41.11135 28.75952 3289 ft 177 kts 359°
2026-05-05 21:30 41.12361 28.75931 3077 ft 177 kts 359°
2026-05-05 21:30 41.13594 28.75908 2844 ft 177 kts 359°
2026-05-05 21:30 41.14793 28.75886 2611 ft 166 kts 359°
2026-05-05 21:30 41.15905 28.75865 2427 ft 152 kts 359°
2026-05-05 21:31 41.16935 28.75846 2197 ft 146 kts 359°
2026-05-05 21:31 41.17945 28.75827 2001 ft 144 kts 359°
2026-05-05 21:31 41.18944 28.75808 1809 ft 144 kts 359°
2026-05-05 21:31 41.19946 28.75789 1610 ft 144 kts 359°
2026-05-05 21:32 41.20946 28.75770 1410 ft 144 kts 359°
2026-05-05 21:32 41.21945 28.75751 1205 ft 144 kts 359°
2026-05-05 21:32 41.22949 28.75732 1005 ft 144 kts 359°
2026-05-05 21:32 41.23951 28.75713 813 ft 144 kts 360°
2026-05-05 21:33 41.24950 28.75694 624 ft 143 kts
2026-05-05 21:33 41.25941 28.75673 420 ft 142 kts
2026-05-05 21:33 41.26912 28.75654 334 ft 127 kts
2026-05-05 21:33 41.27624 28.75654 331 ft 78 kts 359°
2026-05-05 21:34 41.27948 28.75616 332 ft 23 kts 334°
2026-05-05 21:34 41.28071 28.75543 333 ft 18 kts 336°
2026-05-05 21:34 41.28147 28.75487 332 ft 9 kts 324°
2026-05-05 21:34 41.28169 28.75426 330 ft 6 kts 267°
2026-05-05 21:35 41.28151 28.75372 331 ft 7 kts 230°
2026-05-05 21:35 41.28103 28.75350 334 ft 8 kts 184°
2026-05-05 21:35 41.28042 28.75349 330 ft 10 kts 179°
2026-05-05 21:35 41.27971 28.75351 332 ft 11 kts 179°
2026-05-05 21:36 41.27890 28.75352 334 ft 12 kts 179°
2026-05-05 21:36 41.27799 28.75355 334 ft 14 kts 178°
2026-05-05 21:36 41.27711 28.75358 331 ft 10 kts 178°
2026-05-05 21:36 41.27651 28.75360 333 ft 8 kts 178°
2026-05-05 21:37 41.27591 28.75362 331 ft 9 kts 178°
2026-05-05 21:37 41.27520 28.75365 334 ft 11 kts 178°
2026-05-05 21:37 41.27441 28.75367 334 ft 12 kts 179°
2026-05-05 21:37 41.27365 28.75369 333 ft 10 kts 179°
2026-05-05 21:38 41.27291 28.75370 333 ft 11 kts 179°
2026-05-05 21:38 41.27208 28.75371 331 ft 13 kts 180°
2026-05-05 21:38 41.27119 28.75371 331 ft 11 kts 182°
2026-05-05 21:38 41.27071 28.75299 332 ft 12 kts 263°
2026-05-05 21:39 41.27065 28.75184 334 ft 13 kts 250°
2026-05-05 21:39 41.26986 28.75149 334 ft 13 kts 178°
2026-05-05 21:39 41.26888 28.75152 333 ft 15 kts 179°
2026-05-05 21:39 41.26783 28.75155 334 ft 16 kts 179°
2026-05-05 21:40 41.26675 28.75156 332 ft 16 kts 184°
2026-05-05 21:40 41.26565 28.75118 330 ft 17 kts 197°
2026-05-05 21:40 41.26450 28.75073 331 ft 14 kts 197°
2026-05-05 21:40 41.26356 28.75034 332 ft 15 kts 198°
2026-05-05 21:41 41.26264 28.74997 334 ft 11 kts 193°
2026-05-05 21:41 41.26183 28.74998 332 ft 11 kts 169°
2026-05-05 21:41 41.26120 28.75025 333 ft 9 kts 161°
2026-05-05 21:41 41.26090 28.75016 332 ft 5 kts 225°
2026-05-05 21:42 41.26077 28.74972 332 ft 6 kts 251°
2026-05-05 21:42 41.26064 28.74918 330 ft 1 kts 251°